Regional Weather Roundup
Issued by NWS

Home | Current Version | Previous Version | Graphics & Text | Print | Product List | Glossary On
Versions: 1 2 3 4 5 6 7 8 9 10 11 12 13 14 15 16 17 18 19 20 21 22 23 24 25 26 27 28 29 30 31 32 33 34 35 36 37 38 39 40 41 42 43 44 45 46 47 48 49 50
000
ASUS43 KDMX 242203
RWRIA

WEATHER ROUNDUP FOR IOWA
NATIONAL WEATHER SERVICE DES MOINES IA
500 PM CDT SUN JUL 24 2016

NOTE: "FAIR" INDICATES FEW OR NO CLOUDS BELOW 12,000 FEET WITH NO
SIGNIFICANT WEATHER AND/OR OBSTRUCTIONS TO VISIBILITY.

* - THESE STATIONS ARE NOT NWS STATIONS...THUS NOT UNDER NWS
QUALITY CONTROL.  THEY ALSO DO NOT REPORT WEATHER SUCH
AS PRECIPITATION OR FOG.

IAZ001>003-012>014-020>022-031>034-043>046-242300-
   NORTHWEST IOWA

CITY           SKY/WX    TMP DP  RH WIND       PRES   REMARKS
CARROLL *      CLOUDY    81  68  65 N5        29.99F HX  83
CHEROKEE *     CLOUDY    80  65  59 NW6       30.01S HX  82
LE MARS *      CLOUDY    82  64  54 NW7       30.02S HX  84
SHELDON *      CLOUDY    75  66  73 NW8G15    30.03R
SIOUX CITY     PTSUNNY   86  59  39 N10       30.01S HX  85
SPENCER        CLOUDY    81  62  52 NW9       29.99F HX  82
STORM LAKE *   CLOUDY    79  64  61 N9        30.02S HX  81
$$

IAZ055>058-069>071-079>083-090>094-242300-
   SOUTHWEST IOWA

CITY           SKY/WX    TMP DP  RH WIND       PRES   REMARKS
ATLANTIC *     CLOUDY    81  70  69 N7        30.01S HX  84
CLARINDA *       N/A     82  72  69 MISG      30.02S HX  87
COUNCIL BLFS * CLOUDY    81  70  69 CALM      30.03F HX  84
CRESTON *      PTSUNNY   82  68  61 N8        30.01F HX  85
HARLAN  *      CLOUDY    81  68  65 CALM      30.05S HX  83
LAMONI         PTSUNNY   82  73  74 N8        29.98R HX  87
RED OAK *      MOSUNNY   82  70  65 N6        30.02F HX  86
SHENANDOAH *   CLOUDY    81  72  74 W13       30.06R HX  84
$$

IAZ047>049-059>061-072>074-084-242300-
   CENTRAL IOWA

CITY           SKY/WX    TMP DP  RH WIND       PRES   REMARKS
AMES           CLOUDY    81  68  64 NW14G21   29.98R HX  84
ANKENY *         N/A    N/A N/A N/A MISG        N/A
BOONE *        CLOUDY    81  68  65 NW12      29.99S HX  83
CHARITON *       N/A    N/A N/A N/A MISG        N/A
DES MOINES     CLOUDY    86  65  49 N17       29.97R HX  88
GRINNELL*      CLOUDY    83  70  65 NW10      29.96R HX  87
KNOXVILLE *    CLOUDY    84  70  61 NW10      29.95R HX  88
MARSHALLTOWN   PTSUNNY   82  70  66 NW15      29.97R HX  86
NEWTON *       CLOUDY    84  70  61 NW10G17   29.96R HX  88
PELLA *        CLOUDY    84  69  61 NW6       29.96R HX  88
PERRY *          N/A     80  71  74 N7        29.99F HX  83
$$

IAZ004>006-015-016-023>025-035-036-242300-
   NORTH CENTRAL IOWA

CITY           SKY/WX    TMP DP  RH WIND       PRES   REMARKS
ALGONA *       PTSUNNY   81  63  54 NW10      30.00F HX  82
ESTHERVILLE    CLOUDY    76  65  68 N9        29.99F
FORT DODGE *   CLOUDY    79  66  65 N5        30.00F HX  81
MASON CITY     CLOUDY    80  66  62 NW13      30.00F HX  82
FOREST CITY *    N/A     79  63  57 NW14G21   29.99F HX  80
IOWA FALLS *     N/A     79  66  65 NW8       30.01R HX  81
$$

IAZ007>011-017>019-026>030-037>042-050>054-066-242300-
   NORTHEAST IOWA

CITY           SKY/WX    TMP DP  RH WIND       PRES   REMARKS
CEDAR RAPIDS   MOSUNNY   85  72  65 NW10      29.90R HX  91
CHARLES CITY * CLOUDY    79  66  65 NW14G22   29.98R HX  81
CLINTON *      PTSUNNY   88  82  82 W9        29.88R HX 108
DECORAH *      CLOUDY    81  66  61 VRB6G15   29.93R HX  83
DUBUQUE        MOSUNNY   87  76  69 NW12      29.90R HX  97
MONTICELLO *   MOSUNNY   86  70  58 NW15G21   29.89S HX  90
OELWEIN *      MOSUNNY   81  70  69 NW9       29.95R HX  84
WATERLOO       PTSUNNY   82  68  62 NW9       29.95R HX  85
$$

IAZ064-065-067-068-078-242300-
   EAST CENTRAL IOWA

CITY           SKY/WX    TMP DP  RH WIND       PRES   REMARKS
DAVENPORT      CLOUDY    88  80  77 W8        29.89R HX 104
IOWA CITY      PTSUNNY   88  78  72 NW8       29.90S HX 101
MT. PLEASANT * CLOUDY    90  81  75 SW7       29.90S HX 109
MUSCATINE *    CLOUDY    88  81  79 NW9       29.89R HX 105
QUAD CITIES    MOSUNNY   89  78  70 SW6       29.87R HX 103
$$

IAZ062-063-075>077-085>089-095>099-242300-
   SOUTHEAST IOWA

CITY           SKY/WX    TMP DP  RH WIND       PRES   REMARKS
BURLINGTON     CLOUDY    87  81  82 W5        29.89S HX 104
FAIRFIELD *    PTSUNNY   88  79  74 N10       29.91R HX 102
KEOKUK *       CLOUDY    90  79  70 W8        29.89S HX 105
CENTERVILLE *  PTSUNNY   84  77  79 NW7       29.97R HX  94
OTTUMWA        PTSUNNY   86  76  71 N13       29.91F HX  96
WASHINGTON *   CLOUDY    86  81  84 N10       29.92R HX 102
$$

ABBREVIATIONS USED IN REMARKS
   TC - TEMPERATURES IN CELSIUS
  WCI - WIND CHILL INDEX
   HX - HEAT INDEX
  VSB - VISIBILITY
$$





USA.gov is the U.S. government's official web portal to all federal, state and local government web resources and services.